Location: ???????
(55.4362°N, 38.1183°E)
Time: 13:23:52
(UTC+00:00)

M-CUBED/EXP-1 PRIME - Pass Details

Date: 14 December 2021
Orbit: 426 x 650 km, 101.7° (Epoch: 28 January)

Event Time Altitude Azimuth Distance (km) Brightness Sun altitude
Rises 16:09:37 0° 191° (S) 2,894 ? -25.6°
Reaches altitude 10° 16:12:04 10° 204° (SSW) 2,017 ? -25.9°
Maximum altitude 16:15:46 26° 261° (W) 1,282 ? -26.4°
Drops below altitude 10° 16:19:34 10° 318° (NW) 2,072 ? -27.0°
Sets 16:22:07 0° 331° (NNW) 2,989 ? -27.3°
